User: anonymous   Login
Location: Oberwangen
(47.4286°N, 8.9679°E)
Time: 16:18:29
(UTC+00:00)
Language:

Cosmos 1447 Rocket - Orbit

View from above orbital plane
View from above orbital plane
View from above satellite
View from above satellite

Ground track
Ground track

The orbit data is extracted from the following two-line orbital elements,

1 13917U 83021B   21258.89916571  .00000015  00000-0  21363-6 0  9996
2 13917  82.9469 173.8692 0027297 226.4324 202.8614 13.76867630932854
Epoch (UTC): 15 September 2021 21:34:47
Eccentricity: 0.0027297
inclination: 82.9469°
perigee height: 955 km
apogee height: 995 km
right ascension of ascending node: 173.8692°
argument of perigee: 226.4324°
revolutions per day: 13.76867630
mean anomaly at epoch: 202.8614°
orbit number at epoch: 93285

The dashed part of the orbit path shows where the satellite is in the earth's shadow,  

DLR